Omaha Millard, NE

3:22 PM CDT on April 24, 2017 (GMT -0500)
Millard Municipal

Weather History for KMLE - October, 2012

Change the Weather History Date:

Sunday, October 21, 2012

  Actual Average (KOFF) Record (KOFF)
Temperature  
Mean Temperature 62 °F -  
Max Temperature 79 °F 60 °F 84 °F (2003)
Min Temperature 45 °F 41 °F 28 °F (2006)
Degree Days  
Heating Degree Days 3    
Growing Degree Days 12 (Base 50)    
Moisture  
Dew Point 53 °F    
Average Humidity 75    
Maximum Humidity 92    
Minimum Humidity 52    
Precipitation  
Precipitation 0.00 in - - ()
Sea Level Pressure  
Sea Level Pressure 29.74 in    
Wind  
Wind Speed 5 mph (SE)    
Max Wind Speed 14 mph    
Max Gust Speed 21 mph    
Visibility 10 miles    
Events Thunderstorm    
Averages and records for this station are not official NWS values.
T = Trace of Precipitation, MM = Missing Value Source: NWS Daily Summary

Daily Weather History Graph

Daily Weather History Graph

Search for Another Location

Airport or City:

Trip Planner

Search our weather history database for the weather conditions in past years. The results will help you decide how hot, cold, wet, or windy it might be!

Date:

Astronomy

Oct. 21, 2012 Rise Set
Actual Time 7:43 AM CDT 6:33 PM CDT
Civil Twilight 7:15 AM CDT 7:01 PM CDT
Nautical Twilight 6:43 AM CDT 7:34 PM CDT
Astronomical Twilight 6:11 AM CDT 8:05 PM CDT
Moon 2:06 PM CDT (10/21) No Moon Set
Length of Visible Light 11h 46m
Length of Day
10h 50m
Waxing Crescent, 45% of the Moon is Illuminated
Oct 21
Waxing Crescent
Oct 21
First Quarter
Oct 29
Full
Nov 6
Last Quarter
Nov 13
New

Hourly Weather History & Observations

Time (CDT) Temp. Windchill Dew Point Humidity Pressure Visibility Wind Dir Wind Speed Gust Speed Precip Events Conditions
12:15 AM 52.7 °F - 42.3 °F 68% 29.74 in 10.0 mi ESE 5.8 mph - N/A   Clear
12:35 AM 50.9 °F - 41.9 °F 71% 29.73 in 10.0 mi ESE 6.9 mph - N/A   Clear
12:55 AM 50.5 °F - 42.1 °F 73% 29.73 in 10.0 mi ESE 5.8 mph - N/A   Clear
1:15 AM 50.4 °F - 42.1 °F 73% 29.73 in 10.0 mi ESE 5.8 mph - N/A   Clear
1:35 AM 50.9 °F - 42.8 °F 74% 29.73 in 10.0 mi ESE 5.8 mph - N/A   Clear
1:55 AM 51.3 °F - 43.0 °F 73% 29.72 in 10.0 mi ESE 6.9 mph - N/A   Clear
2:15 AM 50.9 °F - 43.0 °F 74% 29.72 in 10.0 mi ESE 8.1 mph - N/A   Clear
2:35 AM 50.7 °F - 43.0 °F 75% 29.72 in 10.0 mi SE 6.9 mph - N/A   Clear
2:55 AM 49.6 °F - 43.0 °F 78% 29.72 in 10.0 mi SE 6.9 mph - N/A   Clear
3:15 AM 49.1 °F - 43.0 °F 79% 29.72 in 10.0 mi ESE 4.6 mph - N/A   Clear
3:35 AM 48.9 °F - 43.0 °F 80% 29.72 in 10.0 mi SE 4.6 mph - N/A   Clear
3:55 AM 48.4 °F - 43.0 °F 82% 29.72 in 10.0 mi SE 4.6 mph - N/A   Clear
4:15 AM 47.8 °F - 42.8 °F 83% 29.72 in 10.0 mi SE 4.6 mph - N/A   Clear
4:35 AM 47.5 °F - 42.8 °F 84% 29.71 in 10.0 mi SE 4.6 mph - N/A   Clear
4:55 AM 46.6 °F - 42.3 °F 85% 29.72 in 10.0 mi SE 5.8 mph - N/A   Clear
5:15 AM 46.4 °F 43.5 °F 42.6 °F 87% 29.72 in 10.0 mi SE 5.8 mph - N/A   Clear
5:55 AM 46.4 °F 44.3 °F 42.8 °F 87% 29.72 in 10.0 mi SE 4.6 mph - N/A   Clear
6:15 AM 46.6 °F - 43.0 °F 87% 29.73 in 10.0 mi SE 4.6 mph - N/A   Clear
6:35 AM 46.6 °F - 43.2 °F 88% 29.73 in 10.0 mi SE 4.6 mph - N/A   Clear
6:55 AM 46.2 °F 45.0 °F 43.2 °F 89% 29.73 in 10.0 mi ESE 3.5 mph - N/A   Clear
7:15 AM 45.9 °F - 43.0 °F 90% 29.74 in 10.0 mi Calm Calm - N/A   Clear
7:35 AM 46.0 °F - 43.2 °F 90% 29.74 in 10.0 mi Calm Calm - N/A   Clear
7:55 AM 45.5 °F - 43.0 °F 91% 29.74 in 10.0 mi Calm Calm - N/A   Clear
8:15 AM 45.5 °F - 43.2 °F 92% 29.75 in 10.0 mi Calm Calm - N/A   Clear
8:35 AM 46.6 °F - 44.2 °F 92% 29.76 in 10.0 mi SE 3.5 mph - N/A   Clear
8:55 AM 48.6 °F - 45.1 °F 88% 29.76 in 10.0 mi ESE 4.6 mph - N/A   Clear
9:15 AM 49.8 °F - 46.2 °F 87% 29.77 in 10.0 mi ESE 3.5 mph - N/A   Clear
9:35 AM 53.8 °F - 48.4 °F 82% 29.77 in 10.0 mi SE 5.8 mph - N/A   Clear
9:55 AM 55.6 °F - 48.9 °F 78% 29.77 in 10.0 mi SSE 5.8 mph - N/A   Clear
10:15 AM 57.9 °F - 50.2 °F 75% 29.78 in 10.0 mi SE 5.8 mph - N/A   Clear
10:35 AM 60.3 °F - 51.8 °F 74% 29.78 in 10.0 mi ESE 3.5 mph - N/A   Clear
10:55 AM 62.8 °F - 53.4 °F 71% 29.78 in 10.0 mi South 5.8 mph - N/A   Clear
11:15 AM 64.4 °F - 54.1 °F 69% 29.78 in 10.0 mi SSE 5.8 mph - N/A   Clear
11:35 AM 66.4 °F - 55.9 °F 69% 29.77 in 10.0 mi SSE 5.8 mph - N/A   Clear
11:55 AM 67.8 °F - 55.9 °F 66% 29.76 in 10.0 mi SE 4.6 mph - N/A   Clear
12:15 PM 69.1 °F - 57.4 °F 66% 29.77 in 10.0 mi SE 5.8 mph - N/A   Clear
12:35 PM 70.2 °F - 57.7 °F 65% 29.76 in 10.0 mi SSE 5.8 mph - N/A   Clear
12:55 PM 71.6 °F - 58.6 °F 64% 29.76 in 10.0 mi SSE 5.8 mph - N/A   Clear
1:15 PM 72.0 °F - 59.2 °F 64% 29.75 in 10.0 mi SE 6.9 mph - N/A   Clear
1:35 PM 73.4 °F - 59.2 °F 61% 29.74 in 10.0 mi SE 5.8 mph - N/A   Clear
1:55 PM 73.6 °F - 59.2 °F 61% 29.73 in 10.0 mi ESE 5.8 mph - N/A   Clear
2:15 PM 74.1 °F - 59.7 °F 61% 29.72 in 10.0 mi ESE 3.5 mph - N/A   Clear
2:35 PM 75.9 °F - 60.8 °F 59% 29.71 in 10.0 mi SE 6.9 mph - N/A   Clear
2:55 PM 77.7 °F - 62.2 °F 59% 29.71 in 10.0 mi SE 13.8 mph - N/A   Clear
3:15 PM 78.4 °F - 61.0 °F 55% 29.71 in 10.0 mi East 6.9 mph 16.1 mph N/A   Clear
3:35 PM 79.0 °F - 60.4 °F 53% 29.70 in 10.0 mi East 8.1 mph - N/A   Clear
3:55 PM 79.3 °F - 60.1 °F 52% 29.70 in 10.0 mi SSE 13.8 mph - N/A   Clear
4:15 PM 79.2 °F - 60.4 °F 53% 29.70 in 10.0 mi SSE 9.2 mph - N/A   Clear
4:35 PM 79.2 °F - 60.8 °F 53% 29.71 in 10.0 mi SE 11.5 mph - N/A   Clear
4:55 PM 79.0 °F - 60.8 °F 54% 29.70 in 10.0 mi SSE 10.4 mph - N/A   Clear
5:15 PM 78.4 °F - 61.5 °F 56% 29.70 in 10.0 mi SSE 10.4 mph - N/A   Clear
5:35 PM 77.9 °F - 61.7 °F 57% 29.71 in 10.0 mi SSE 8.1 mph - N/A   Clear
5:55 PM 76.1 °F - 62.1 °F 62% 29.71 in 10.0 mi SE 6.9 mph - N/A   Scattered Clouds
6:15 PM 74.5 °F - 62.1 °F 65% 29.72 in 10.0 mi SE 5.8 mph - N/A   Scattered Clouds
6:35 PM 75.2 °F - 62.2 °F 64% 29.72 in 10.0 mi ESE 4.6 mph - N/A   Overcast
6:55 PM 74.5 °F - 62.4 °F 66% 29.72 in 10.0 mi SE 4.6 mph - N/A   Mostly Cloudy
7:15 PM 72.9 °F - 63.3 °F 72% 29.74 in 10.0 mi SSE 10.4 mph 20.7 mph N/A   Overcast
7:35 PM 71.2 °F - 63.0 °F 75% 29.74 in 10.0 mi SSE 6.9 mph - N/A   Mostly Cloudy
7:55 PM 70.3 °F - 63.0 °F 77% 29.75 in 10.0 mi Calm Calm - N/A   Mostly Cloudy
8:15 PM 69.6 °F - 62.8 °F 79% 29.76 in 10.0 mi Calm Calm - N/A   Mostly Cloudy
8:35 PM 69.3 °F - 62.6 °F 79% 29.76 in 10.0 mi Calm Calm - N/A   Mostly Cloudy
8:55 PM 67.5 °F - 62.2 °F 83% 29.76 in 10.0 mi Calm Calm - N/A   Mostly Cloudy
9:15 PM 67.3 °F - 62.6 °F 85% 29.77 in 10.0 mi Calm Calm - N/A   Scattered Clouds
9:35 PM 66.6 °F - 62.4 °F 86% 29.77 in 10.0 mi Calm Calm - N/A   Scattered Clouds
9:55 PM 64.9 °F - 62.4 °F 92% 29.78 in 7.0 mi Calm Calm - N/A   Mostly Cloudy
10:15 PM 64.8 °F - 62.1 °F 91% 29.78 in 7.0 mi Calm Calm - N/A   Overcast
10:35 PM 65.1 °F - 62.6 °F 92% 29.77 in 7.0 mi Calm Calm - N/A   Overcast
10:55 PM 65.5 °F - 62.6 °F 90% 29.77 in 7.0 mi Calm Calm - N/A   Scattered Clouds
11:15 PM 68.4 °F - 63.9 °F 85% 29.77 in 10.0 mi Calm Calm - N/A   Mostly Cloudy
11:35 PM 68.9 °F - 64.0 °F 84% 29.77 in 3.0 mi East 3.5 mph - N/A Thunderstorm Haze
11:55 PM 68.9 °F - 64.4 °F 86% 29.77 in 10.0 mi Calm Calm - N/A   Overcast